Waarnemingen

Advertentie
Mijn weer
Schaffen, België (6465): temperatuur & dauwpunt: 01.12.2019 08:00:00 - 07.12.2019 08:00:00 (CET)Schaffen, België (6465): windsnelheid & windstoten: 01.12.2019 08:00:00 - 07.12.2019 08:00:00 (CET)Schaffen, België (6465): windrichting: 01.12.2019 08:00:00 - 07.12.2019 08:00:00 (CET)Schaffen, België (6465): luchtdruk: 01.12.2019 08:00:00 - 07.12.2019 08:00:00 (CET)Schaffen, België (6465): zicht: 01.12.2019 08:00:00 - 07.12.2019 08:00:00 (CET)
Datum & Tijd tt [°C] td [°C] ff [km/u] ff [kn] fx [km/u] fx [kn] dd ppp [hPa] vv [km]
07.12.2019 08:00:00 8,7 6,3 11 6 22 12 WZW 1013,2 20
07.12.2019 07:00:00 8,8 6,4 14 8 - - WZW 1012,7 20
07.12.2019 06:00:00 9,0 6,4 14 8 29 16 WZW 1011,8 20
07.12.2019 05:00:00 9,1 6,5 14 8 32 18 WZW 1011,2 20
07.12.2019 04:00:00 9,3 6,7 14 8 - - WZW 1010,5 20
07.12.2019 03:00:00 9,2 7,1 14 8 32 18 WZW 1009,7 16
07.12.2019 02:00:00 9,5 7,6 18 10 32 18 WZW 1008,7 20
07.12.2019 01:00:00 9,5 7,7 18 10 - - WZW 1008,1 20
07.12.2019 00:00:00 9,2 7,8 18 10 40 21 WZW 1007,2 20
06.12.2019 23:00:00 8,8 7,5 18 10 40 21 ZW 1006,6 17
06.12.2019 22:00:00 7,9 7,2 18 10 - - ZW 1006,5 9
06.12.2019 21:00:00 7,2 6,0 22 12 40 21 ZZW 1006,3 20
06.12.2019 20:00:00 6,5 5,4 25 14 47 25 ZZW 1006,7 19
06.12.2019 19:00:00 6,5 5,0 22 12 - - ZZW 1006,8 20
06.12.2019 18:00:00 6,2 5,2 26 14 50 27 ZZW 1007,1 3,6
06.12.2019 17:00:00 6,0 5,1 25 14 54 29 ZZW 1007,5 5
06.12.2019 16:00:00 5,8 5,1 25 14 - - ZZW 1008,1 2,9
06.12.2019 15:00:00 5,6 4,8 25 14 47 25 ZZW 1008,8 2,6
06.12.2019 14:00:00 5,6 4,5 25 14 43 23 ZZW 1009,7 12
06.12.2019 13:00:00 5,6 4,4 22 12 - - ZZW 1010,8 14
06.12.2019 12:00:00 5,0 4,1 25 14 47 25 ZZW 1011,6 7
06.12.2019 11:00:00 4,4 3,0 25 14 40 21 ZZW 1013,0 10
06.12.2019 10:00:00 3,7 2,5 22 12 - - ZZW 1013,5 6
06.12.2019 09:00:00 3,2 1,9 22 12 32 18 ZZW 1013,8 6
06.12.2019 08:00:00 3,0 0,8 14 8 29 16 ZZW 1014,2 8
06.12.2019 07:00:00 2,8 0,6 18 10 - - Z 1014,3 14
06.12.2019 06:00:00 2,7 0,6 18 10 43 23 ZZW 1014,8 12
06.12.2019 05:00:00 2,7 0,7 25 14 40 21 ZZW 1015,2 11
06.12.2019 04:00:00 2,4 0,5 18 10 - - ZZW 1015,7 10
06.12.2019 03:00:00 2,2 0,8 18 10 36 19 ZZW 1016,5 8
06.12.2019 02:00:00 2,0 0,8 22 12 36 19 ZZW 1017,0 6
06.12.2019 01:00:00 1,6 0,3 22 12 - - ZZW 1017,7 6
06.12.2019 00:00:00 1,6 -0,1 14 8 32 18 ZZW 1018,8 8
05.12.2019 23:00:00 1,9 0,1 22 12 32 18 ZZW 1018,8 9
05.12.2019 22:00:00 1,4 0,1 11 6 - - ZZW 1019,5 5
05.12.2019 21:00:00 1,2 0,0 14 8 25 14 Z 1019,6 5
05.12.2019 20:00:00 1,8 0,7 11 6 29 16 ZZW 1020,2 5
05.12.2019 19:00:00 2,0 1,3 14 8 - - ZZW 1020,7 3,1
05.12.2019 18:00:00 2,2 1,2 14 8 25 14 Z 1020,8 4,1
05.12.2019 17:00:00 2,5 0,9 14 8 25 14 ZZW 1021,6 6
05.12.2019 16:00:00 3,0 1,4 11 6 - - ZW 1021,5 6
05.12.2019 15:00:00 3,4 1,6 11 6 22 12 ZW 1021,6 7
05.12.2019 14:00:00 3,2 2,6 7 4 14 8 ZW 1021,7 5
05.12.2019 13:00:00 2,0 2,0 8 4 - - ZZW 1022,2 4,1
05.12.2019 12:00:00 1,5 1,5 11 6 14 8 Z 1022,1 3,5
05.12.2019 11:00:00 0,0 0,0 11 6 18 10 ZZW 1022,7 4,1
05.12.2019 10:00:00 -0,9 -0,9 4 2 - - N 1023,2 3,1
05.12.2019 09:00:00 -3,1 -3,1 7 4 11 6 Z 1022,7 0,3
05.12.2019 08:00:00 -3,2 -3,2 4 2 7 4 N 1022,7 0,2
05.12.2019 07:00:00 -2,9 -2,9 4 2 - - N 1022,1 0,1
05.12.2019 06:00:00 -2,7 -2,7 4 2 4 2 N 1021,7 0,1
05.12.2019 05:00:00 -2,1 -2,1 4 2 11 6 N 1022,1 0,1
05.12.2019 04:00:00 -1,7 -1,7 7 4 - - Z 1021,5 0,1
05.12.2019 03:00:00 -1,7 -1,7 4 2 11 6 N 1021,1 0,1
05.12.2019 02:00:00 -1,7 -1,7 4 2 7 4 N 1021,3 0,1
05.12.2019 01:00:00 -1,4 -1,3 4 2 - - N 1021,3 0,1
05.12.2019 00:00:00 -1,3 -1,3 7 4 11 6 Z 1021,2 0,1
04.12.2019 23:00:00 -1,1 -1,1 4 2 4 2 N 1021,2 0,1
04.12.2019 22:00:00 -0,7 -0,7 4 2 - - N 1021,0 0,1
04.12.2019 21:00:00 -0,2 -0,2 4 2 4 2 N 1021,7 0,1
04.12.2019 20:00:00 0,1 0,1 4 2 14 8 N 1021,2 0,1
04.12.2019 19:00:00 0,0 0,0 11 6 - - NNO 1020,8 -
04.12.2019 18:00:00 -0,2 -0,2 7 4 11 6 NNO 1021,2 0,1
04.12.2019 17:00:00 2,1 0,7 4 2 14 8 - 1021,2 7
04.12.2019 16:00:00 5,5 3,2 7 4 - - NO 1021,0 9
04.12.2019 15:00:00 6,3 3,3 7 4 11 6 NNO 1020,7 11
04.12.2019 14:00:00 6,2 2,9 4 2 7 4 N 1021,2 12
04.12.2019 13:00:00 5,0 2,0 4 2 - - N 1021,7 12
04.12.2019 12:00:00 3,6 1,9 4 2 7 4 N 1022,7 8
04.12.2019 11:00:00 1,6 1,0 4 2 7 4 N 1023,5 5
04.12.2019 10:00:00 -0,2 -0,3 4 2 - - N 1023,7 3,8
04.12.2019 09:00:00 -0,9 -0,9 4 2 7 4 N 1023,7 2,5
04.12.2019 08:00:00 -1,3 -1,3 4 2 7 4 N 1023,8 2,6
04.12.2019 07:00:00 -1,6 -1,6 7 4 - - Z 1023,8 2,2
04.12.2019 06:00:00 -1,0 -1,0 7 4 7 4 N 1024,2 2,0
04.12.2019 05:00:00 -1,8 -1,8 4 2 7 4 N 1024,4 0,3
04.12.2019 04:00:00 -1,4 -1,3 4 2 - - N 1024,7 0,2
04.12.2019 03:00:00 -0,9 -0,9 4 2 4 2 N 1025,4 1,0
04.12.2019 02:00:00 -0,5 -0,5 4 2 7 4 N 1025,5 1,7
04.12.2019 01:00:00 -0,8 -0,8 4 2 - - N 1026,2 0,2
04.12.2019 00:00:00 -0,9 -0,9 7 4 7 4 ZZO 1026,9 0,2
03.12.2019 23:00:00 -0,6 -0,6 4 2 7 4 N 1027,0 0,2
03.12.2019 22:00:00 -0,2 -0,2 4 2 - - N 1027,2 0,2
03.12.2019 21:00:00 0,8 0,7 4 2 7 4 N 1027,4 -
03.12.2019 20:00:00 1,8 1,8 7 4 7 4 ZZO 1027,7 0,1
03.12.2019 19:00:00 3,3 3,1 4 2 - - N 1027,9 1,6
03.12.2019 18:00:00 3,8 3,4 7 4 11 6 Z 1028,0 2,1
03.12.2019 17:00:00 4,4 3,7 5 3 11 6 ZZO 1028,0 3,6
03.12.2019 16:00:00 7,3 3,1 4 2 - - N 1028,0 20
03.12.2019 15:00:00 7,7 3,7 7 4 14 8 ZZW 1028,0 19
03.12.2019 14:00:00 7,7 4,4 7 4 14 8 ZZW 1028,7 18
03.12.2019 13:00:00 4,5 4,1 4 2 - - N 1029,2 3,6
03.12.2019 12:00:00 2,5 2,2 5 3 7 4 ZZO 1030,2 0,6
03.12.2019 11:00:00 2,2 1,5 4 2 4 2 N 1030,5 2,3
03.12.2019 10:00:00 1,5 1,5 4 2 - - N 1030,5 0,9
03.12.2019 09:00:00 1,3 1,3 4 2 7 4 N 1030,4 0,4
03.12.2019 08:00:00 2,0 2,0 2 1 11 6 - 1030,4 0,7
03.12.2019 07:00:00 2,9 2,7 4 2 - - N 1030,0 1,3
03.12.2019 06:00:00 3,6 3,3 11 6 14 8 WZW 1029,7 2,5
03.12.2019 05:00:00 4,8 4,4 7 4 11 6 WZW 1030,0 4,1
03.12.2019 04:00:00 5,0 4,7 8 4 - - WZW 1030,2 3,3
03.12.2019 03:00:00 5,4 4,8 7 4 14 8 W 1030,2 5
03.12.2019 02:00:00 5,6 5,0 11 6 14 8 W 1030,0 7
03.12.2019 01:00:00 5,8 5,1 11 6 - - W 1030,2 7
03.12.2019 00:00:00 5,9 5,2 7 4 14 8 W 1030,2 6
02.12.2019 23:00:00 6,0 5,3 11 6 14 8 W 1030,0 8
02.12.2019 22:00:00 6,0 5,1 9 5 - - WZW 1029,9 9
02.12.2019 21:00:00 6,0 5,0 7 4 14 8 W 1029,7 13
02.12.2019 20:00:00 6,0 4,8 7 4 14 8 W 1029,5 19
02.12.2019 19:00:00 6,1 4,6 11 6 - - W 1029,0 20
02.12.2019 18:00:00 6,5 4,6 11 6 14 8 W 1028,9 20
02.12.2019 17:00:00 6,5 4,9 11 6 14 8 W 1028,7 19
02.12.2019 16:00:00 6,9 5,1 7 4 - - W 1028,4 16
02.12.2019 15:00:00 7,5 5,0 7 4 11 6 W 1028,2 17
02.12.2019 14:00:00 6,5 4,6 4 2 14 8 N 1028,2 18
02.12.2019 13:00:00 5,8 3,8 11 6 - - W 1028,2 16
02.12.2019 12:00:00 4,9 3,3 11 6 18 10 W 1028,4 11
02.12.2019 11:00:00 3,9 2,7 11 6 22 12 W 1028,7 12
02.12.2019 10:00:00 0,3 0,0 7 4 - - WZW 1027,9 2,3
02.12.2019 09:00:00 -0,6 -0,9 4 2 7 4 N 1027,4 2,2
02.12.2019 08:00:00 -0,5 -0,7 4 2 7 4 N 1026,9 2,8
02.12.2019 07:00:00 -1,3 -1,5 4 2 - - N 1026,7 2,3
02.12.2019 06:00:00 -0,5 -0,8 5 3 11 6 W 1026,2 2,3
02.12.2019 05:00:00 -1,1 -1,3 4 2 7 4 N 1025,9 1,4
02.12.2019 04:00:00 -1,2 -1,4 4 2 - - N 1025,5 1,7
02.12.2019 03:00:00 -0,5 -0,9 11 6 14 8 NW 1025,5 3,4
02.12.2019 02:00:00 -0,5 -1,2 7 4 14 8 NW 1025,0 6
02.12.2019 01:00:00 -0,1 -1,0 7 4 - - NNW 1024,4 9
02.12.2019 00:00:00 0,8 -0,7 4 2 14 8 N 1024,2 13
01.12.2019 23:00:00 0,1 -0,8 11 6 14 8 N 1024,2 10
01.12.2019 22:00:00 -0,1 -1,3 7 4 - - N 1023,5 10
01.12.2019 21:00:00 0,3 -1,3 11 6 18 10 N 1023,0 12
01.12.2019 20:00:00 1,4 -1,1 11 6 22 12 NNO 1022,5 17
01.12.2019 19:00:00 2,1 -0,6 14 8 - - NNO 1022,1 16
01.12.2019 18:00:00 2,5 -0,3 14 8 25 14 NNO 1021,2 18
01.12.2019 17:00:00 2,0 -0,7 11 6 18 10 NNO 1020,5 17
01.12.2019 16:00:00 2,7 -0,8 11 6 - - NO 1019,8 19
01.12.2019 15:00:00 2,9 -0,6 11 6 22 12 NO 1019,7 20
01.12.2019 14:00:00 3,0 -0,7 14 8 25 14 NO 1019,7 20
01.12.2019 13:00:00 3,0 -0,8 14 8 - - NO 1020,1 20
01.12.2019 12:00:00 2,9 -0,7 14 8 25 14 NO 1020,5 20
01.12.2019 11:00:00 2,5 -0,8 18 10 29 16 NO 1020,2 20
01.12.2019 10:00:00 1,9 -0,9 14 8 - - NO 1019,8 20
01.12.2019 09:00:00 1,5 -1,0 14 8 25 14 NO 1019,6 20
01.12.2019 08:00:00 1,1 -0,7 11 6 25 14 NO 1019,2 16

tt = temperatuur
td = dauwpunt
ff = windsnelheid
fx = windstoten
dd = windrichting
ppp = luchtdruk
vv = zicht

Weerstations in de omgeving